Showing default

NUSAT-41 (C PAYNE-G), 56944

Orbit data source: Space-Track

NUSAT-41 (C PAYNE-G), 56944 is a payload satellite owned by URUGUS S.A. (AR) in SSO that was launched on Mon, 12 Jun 2023 UTC via an FALCON 9 launch vehicle from the Air Force Western Test Range (AFWTR). Payload-class satellites include a variety of spacecraft equipped with specific instruments for various scientific and technological missions. These include communications satellites like Starlink; space stations such as the ISS; scientific satellites like the Hubble; Earth observation satellites from companies like Planet Labs, Umbra, and HawkEye 360; GPS; miniature CubeSats for education and research; and military/defense satellites.

Loading next visibility...
Identifier
56944, 2023-084N
Orbit
SSO
Country
Flag of UnknownUnknown / ARGN
Related business
Manufacturer
URUGUS S.A.
Mission
Operational Commercial Imaging
Bus & Motor
NEWSAT V, Unknown motor
Mass
41.5 kg wet, 38.5 kg dry
Launch date (UTC)
2023-06-12 (2 years ago)
Launch vehicle
FALCON 9
Launch site
Air Force Western Test Range (AFWTR)
Object type
Payload
Rocket body
Debris
Shape & HBR
Box, 1.0 m
Radar Cross Section
0.542 m², Medium (>0.1 m² and < 1m²)

Expand to show TLE details & history
Last TLE update: 16 hours ago

TLE from 16 hours ago
0 NUSAT-41 (C PAYNE-G)
1 56944U 23084N   25291.34089847  .00024633  00000-0  83874-3 0  9998
2 56944  97.5242  59.6171 0005414  94.5406 265.6453 15.30384667130806
Epoch: 2025-10-18T08:10Z
TLE epoch observation values (Epoch: 2025-10-18T08:10:53.627Z)
Latitude
-0.00004°
Longitude
-90.17965°
Altitude
478.049 km
Speed
7.626 km/s
True Right ascension
03h 58m 28s
True Declination
0° 00' 00"
Sunlit
Object was in full shadow at epoch
Visualization orbit readout
Latitude
Unknown
Longitude
Unknown
Altitude
Unknown
Speed
Unknown
Apparent Right ascension
Unknown
Apparent Declination
Unknown
Sunlit
N/A
Visualization observer readout
Local Sidereal Time
18:50:44
Azimuth
Unknown
Elevation
Unknown
Doppler factor
Unknown
Orbital elements
Apogee altitude
475.329 km
Perigee altitude
467.912 km
Semi-major axis
6,849.758 km
Eccentricity
0.00054
Inclination
97.5242°
RAAN
59.6171°
Arg. of periapsis
94.5406°
True anomaly
265.58344°
Mean anomaly
265.6453°
Eccentric anomaly
265.61437°
Mean motion
3.82851 °/min
Orbital period
94.03 mins
BSTAR
0.00083874
Loading maneuver chart data...
Computing Atmospheric mass density...

Documentation

Showing up to 5 results
|